THOR 5 (32487 NORAD) Tracking and Keplerian Element Data

This shows tracking and keplerian element data for the satellite.

Feedback or suggestion? Click here.




ElementValue
Catalog32487
NameTHOR 5
Epoch Orbit6231
Epoch Day34.59286595
Epoch Year2025
RAAN262.2093
Inclination0.0577
Eccentricity0.0002741
Argument of Perigee58.9771
Mean Anonmoly25.4941
Mean Motion1.00273154
Decay Rate-4E-08
L11 32487U 08006A 25034.59286595 -.00000004 00000+0 00000+0 0 9994
L22 32487 0.0577 262.2093 0002741 58.9771 25.4941 1.00273154 62310



Live tracking and technical data element details for THOR 5 (NORAD 32487). THOR 5 can be tracked NOW for your location showing map with azimuth and elevation plus other details from your city location.







IsCatalogInMostPopularTable: catalog: 32487, numindb: 355
Update: records affected: 1



GetName: 32487 THOR 5

Hit Count: updated at: Sat, 17 May 2025 08:40:29 GMT